Flag for Germany Weather past 2 weeks in Leutkirch im Allgäu, Baden-Württemberg, Germany

Now
63 °F

Fog.


Feels Like: 63 °F
Forecast: 60 / 71 °F
Wind: 2 mph from Southeast

Location: Kempten

Current Time: Jul 7, 2015 at 3:15:25 AM

Latest Report: Jul 7, 2015 at 3:00 AM


Visibility: 3 mi

Pressure: 30.05 "Hg (27.81 "Hg at 656m altitude)

Humidity: 97%

Dew point: 62 °F

Location of Leutkirch im AllgäuLocation

Historic Weather in Leutkirch im Allgäu — Graph

°F

Leutkirch im Allgäu temperature yesterday

Maximum temperature yesterday: 82 °F (at 6:00 PM)
Minimum temperature yesterday: 64 °F (at 7:00 AM)
Average temperature yesterday: 75 °F

Past Weeks' High & Low Weather Summary

 TemperatureHumidityPressure
High93 °F (Jul 5, 4:00 PM)98% (Jun 28, 12:00 AM)30.27 "Hg (Jun 28, 12:00 AM)
Low45 °F (Jun 25, 4:00 AM)23% (Jul 5, 4:00 PM)29.73 "Hg (Jun 22, 10:00 PM)
Average67 °F65%30.09 "Hg
* Reported Jun 22 2:00 AM — Jul 7 2:00 AM, Leutkirch im Allgäu, Weather by CustomWeather, © 2015

Note: Actual official high and low records may vary slightly from our data, if they occured in-between our weather recording intervals... More about our weather records

Advertising

Leutkirch im Allgäu weather history for previous 24 hours

 ConditionsComfort  
Time TempWeatherWind HumidityBarometerVisibility
2:00 AM
Tue, Jul 7
64 °FFog.2 mph95%30.06 "Hg4 mi
1:00 AM64 °FFog.2 mph93%30.07 "Hg4 mi
12:00 AM66 °FFog.2 mph92%30.07 "Hg4 mi
10:00 PM
Mon, Jul 6
71 °FClear.1 mph82%30.05 "Hg9 mi
9:00 PM76 °FSunny.1 mph65%30.02 "Hg12 mi
8:00 PM80 °FPassing clouds.2 mph64%30.01 "Hg8 mi
7:00 PM82 °FOvercast.2 mph58%30.00 "Hg9 mi
6:00 PM82 °FScattered clouds.2 mph57%30.01 "Hg7 mi
4:00 PM81 °FSunny.2 mph58%30.04 "Hg6 mi
3:00 PM79 °FPartly sunny.2 mph63%30.06 "Hg11 mi
2:00 PM78 °FPartly sunny.2 mph64%30.07 "Hg10 mi
1:00 PM76 °FPartly sunny.2 mph68%30.09 "Hg9 mi
12:00 PM74 °FPartly sunny.2 mph69%30.11 "Hg9 mi
10:00 AM71 °FScattered clouds.1 mph75%30.14 "Hg16 mi
9:00 AM68 °FPassing clouds.3 mph88%30.15 "Hg12 mi
8:00 AM64 °FPassing clouds.2 mph95%30.17 "Hg14 mi
7:00 AM64 °FOvercast.3 mph95%30.18 "Hg15 mi
4:00 AM67 °FLight rain. Fog.2 mph90%30.09 "Hg4 mi
3:00 AM76 °FPassing clouds.2 mph58%30.02 "Hg16 mi
Weather by CustomWeather, © 2015

See weather overviewHow to use our weather pages